Weather reports worldwide

Advertisment
Leconfield, United Kingdom (3382): temperature & dewpoint: 19.09.2018 11:00:00 - 25.09.2018 11:00:00 (BST)Leconfield, United Kingdom (3382): temperature -20cm & temperature -100cm: 19.09.2018 11:00:00 - 25.09.2018 11:00:00 (BST)Leconfield, United Kingdom (3382): wind speed & gusts: 19.09.2018 11:00:00 - 25.09.2018 11:00:00 (BST)Leconfield, United Kingdom (3382): wind direction: 19.09.2018 11:00:00 - 25.09.2018 11:00:00 (BST)Leconfield, United Kingdom (3382): reduced air pressure: 19.09.2018 11:00:00 - 25.09.2018 11:00:00 (BST)Leconfield, United Kingdom (3382): visibility: 19.09.2018 11:00:00 - 25.09.2018 11:00:00 (BST)Leconfield, United Kingdom (3382): sunshine duration: 19.09.2018 11:00:00 - 25.09.2018 11:00:00 (BST)Leconfield, United Kingdom (3382): precipitation: 19.09.2018 11:00:00 - 25.09.2018 11:00:00 (BST)
Date & Time tt [°C] td [°C] tt -20cm [°C] tt -100cm [°C] ff [km/h] ff [kn] fx [km/h] fx [kn] dd ppp [hPa] vv [km] sd [min] rr [mm]
25.09.2018 11:00:00 - - - - - - - - - - - - -
25.09.2018 10:00:00 11,8 6,4 11,7 13,7 18 10 - - SSW 1037,3 10 60 0,0
25.09.2018 09:00:00 9,4 8,6 - - 8 4 - - WSW 1037,4 10 60 0,0
25.09.2018 08:00:00 3,4 3,1 - - 2 1 - - SE 1037,3 7 36 0,0
25.09.2018 07:00:00 2,4 1,8 - - 2 1 - - SW 1037,1 7 0 0,0
25.09.2018 06:00:00 3,1 2,4 - - 2 1 - - W 1036,9 8 0 0,0
25.09.2018 05:00:00 4,1 3,6 - - 4 2 - - W 1037,1 10 0 0,0
25.09.2018 04:00:00 4,5 3,4 - - 2 1 - - SE 1037,4 10 0 0,0
25.09.2018 03:00:00 7,2 5,3 - - 5 3 - - W 1037,5 10 0 0,0
25.09.2018 02:00:00 7,0 5,2 - - 8 4 - - W 1037,8 10 0 0,0
25.09.2018 01:00:00 7,2 5,3 - - 8 4 - - WSW 1038,1 10 - 0,0
25.09.2018 00:00:00 7,8 5,1 - - 8 4 - - W 1037,8 10 0 0,0
24.09.2018 23:00:00 7,9 5,3 - - 8 4 - - WSW 1037,5 10 0 0,0
24.09.2018 22:00:00 8,8 5,7 - - 9 5 - - W 1037,5 10 0 0,0
24.09.2018 21:00:00 9,9 5,8 - - 11 6 - - W 1037,2 10 0 0,0
24.09.2018 20:00:00 10,4 6,1 - - 11 6 - - W 1037,0 10 0 0,0
24.09.2018 19:00:00 11,7 6,4 - - 11 6 - - W 1036,4 10 30 0,0
24.09.2018 18:00:00 13,1 5,6 - - 8 4 - - W 1036,4 10 0 0,0
24.09.2018 17:00:00 14,0 5,3 - - 8 4 - - W 1036,4 10 18 0,0
24.09.2018 16:00:00 14,6 4,1 - - 16 9 - - W 1036,4 10 54 0,0
24.09.2018 15:00:00 15,1 4,2 - - 16 9 - - WNW 1036,5 10 42 0,0
24.09.2018 14:00:00 13,6 3,8 - - 16 9 - - WNW 1036,6 10 48 0,0
24.09.2018 13:00:00 13,6 4,6 - - 16 9 - - WNW 1036,7 10 60 0,0
24.09.2018 12:00:00 12,4 5,1 - - 15 8 - - WNW 1036,5 10 60 0,0
24.09.2018 11:00:00 10,2 4,7 - - 18 10 - - W 1036,6 10 60 0,0
24.09.2018 10:00:00 8,5 4,1 11,9 13,9 15 8 - - W 1036,3 10 60 0,0
24.09.2018 09:00:00 7,7 3,8 - - 11 6 - - W 1035,7 10 60 0,0
24.09.2018 08:00:00 6,1 3,5 - - 11 6 - - W 1034,9 10 36 0,0
24.09.2018 07:00:00 5,0 2,6 - - 9 5 - - W 1034,2 40 0 0,0
24.09.2018 06:00:00 6,3 3,4 - - 11 6 - - W 1033,8 10 0 0,0
24.09.2018 05:00:00 5,2 3,3 - - 9 5 - - W 1033,4 10 0 0,0
24.09.2018 04:00:00 6,3 3,8 - - 11 6 - - WNW 1032,8 10 0 0,0
24.09.2018 03:00:00 6,6 4,0 - - 11 6 - - W 1032,5 10 0 0,0
24.09.2018 02:00:00 6,5 4,3 - - 9 5 - - W 1031,4 10 0 0,0
24.09.2018 01:00:00 7,4 4,4 - - 13 7 - - W 1030,3 10 - 0,0
24.09.2018 00:00:00 7,9 4,7 - - 13 7 - - W 1029,5 10 0 0,0
23.09.2018 23:00:00 6,8 4,5 - - 8 4 - - W 1028,7 10 0 0,0
23.09.2018 22:00:00 6,2 4,2 - - 8 4 - - W 1027,8 10 0 0,0
23.09.2018 21:00:00 6,7 4,2 - - 5 3 - - W 1027,0 10 0 0,0
23.09.2018 20:00:00 7,7 4,4 - - 5 3 - - W 1025,9 10 0 0,0
23.09.2018 19:00:00 9,9 4,1 - - 8 4 - - N 1024,4 10 42 0,0
23.09.2018 18:00:00 11,8 4,3 - - 15 8 - - N 1023,4 10 54 0,0
23.09.2018 17:00:00 11,8 5,2 - - 16 9 - - N 1022,3 10 18 0,0
23.09.2018 16:00:00 12,0 5,9 - - 18 10 - - N 1021,2 10 24 0,2
23.09.2018 15:00:00 11,8 7,6 - - 18 10 - - N 1020,2 10 24 0,0
23.09.2018 14:00:00 9,6 6,9 - - 16 9 - - NNW 1019,5 10 0 0,2
23.09.2018 13:00:00 10,5 6,6 - - 15 8 - - NNW 1018,4 10 0 0,0
23.09.2018 12:00:00 10,6 6,5 - - 15 8 - - NNW 1017,6 10 0 0,0
23.09.2018 11:00:00 9,8 5,9 - - 11 6 - - NW 1016,7 10 0 0,0
23.09.2018 10:00:00 8,4 5,4 12,7 14,0 4 2 - - WNW 1016,1 10 0 0,0
23.09.2018 09:00:00 7,2 4,8 - - 5 3 - - W 1015,6 10 0 0,0
23.09.2018 08:00:00 7,3 4,7 - - 8 4 - - WNW 1015,1 10 0 0,0
23.09.2018 07:00:00 7,0 4,4 - - 5 3 - - WNW 1015,0 10 0 0,0
23.09.2018 06:00:00 6,0 4,6 - - 5 3 - - W 1015,2 10 0 0,0
23.09.2018 05:00:00 5,9 4,3 - - 5 3 - - WNW 1014,7 10 0 0,0
23.09.2018 04:00:00 5,3 4,4 - - 8 4 - - W 1015,3 10 0 0,0
23.09.2018 03:00:00 5,7 4,6 - - 5 3 - - W 1015,2 10 0 0,0
23.09.2018 02:00:00 5,5 4,6 - - 4 2 - - WSW 1015,2 10 0 0,0
23.09.2018 01:00:00 5,9 5,0 - - 4 2 - - W 1015,5 10 - 0,0
23.09.2018 00:00:00 7,0 5,4 - - 4 2 - - W 1015,7 10 0 0,0
22.09.2018 23:00:00 7,2 6,0 - - 5 3 - - W 1015,3 10 0 0,0
22.09.2018 22:00:00 7,2 6,7 - - 5 3 - - W 1015,6 10 0 0,0
22.09.2018 21:00:00 6,9 5,8 - - 4 2 - - W 1015,5 10 0 0,0
22.09.2018 20:00:00 8,7 6,2 - - 4 2 - - SW 1015,3 10 0 0,0
22.09.2018 19:00:00 10,4 6,5 - - 5 3 - - SW 1015,2 10 6 0,0
22.09.2018 18:00:00 12,1 6,4 - - 9 5 - - W 1015,0 10 0 0,0
22.09.2018 17:00:00 12,5 6,7 - - 11 6 - - W 1015,1 10 0 0,0
22.09.2018 16:00:00 12,7 6,2 - - 16 9 - - W 1015,3 10 0 0,0
22.09.2018 15:00:00 12,5 6,1 - - 18 10 - - W 1016,0 10 0 0,0
22.09.2018 14:00:00 12,5 6,4 - - 18 10 - - WSW 1016,2 10 0 0,0
22.09.2018 13:00:00 12,1 7,0 - - 15 8 - - WSW 1016,1 10 0 0,0
22.09.2018 12:00:00 11,3 7,0 - - 15 8 - - WSW 1016,1 10 0 0,0
22.09.2018 11:00:00 11,1 7,5 - - 16 9 - - WSW 1016,3 10 0 0,0
22.09.2018 10:00:00 10,0 6,9 13,2 14,2 15 8 - - WSW 1016,0 10 0 0,0
22.09.2018 09:00:00 9,6 6,4 - - 13 7 - - WSW 1015,7 10 0 0,0
22.09.2018 08:00:00 8,8 6,4 - - 16 9 - - SW 1015,4 10 0 0,0
22.09.2018 07:00:00 8,7 6,1 - - 11 6 - - SW 1015,2 10 0 0,0
22.09.2018 06:00:00 8,5 6,4 - - 11 6 - - SSW 1015,1 10 0 0,0
22.09.2018 05:00:00 9,0 6,7 - - 16 9 - - SW 1014,7 10 0 0,0
22.09.2018 04:00:00 9,2 6,8 - - 13 7 - - WSW 1014,5 10 0 0,0
22.09.2018 03:00:00 9,4 6,7 - - 16 9 - - SW 1014,2 10 0 0,0
22.09.2018 02:00:00 8,9 6,8 - - 9 5 - - SW 1013,8 10 0 0,0
22.09.2018 01:00:00 9,1 7,0 - - 11 6 - - WSW 1013,4 10 - 0,0
22.09.2018 00:00:00 9,9 6,8 - - 18 10 - - WSW 1012,8 10 0 0,0
21.09.2018 23:00:00 10,4 6,9 - - 16 9 - - WSW 1012,1 10 0 0,0
21.09.2018 22:00:00 10,2 6,9 - - 21 11 - - W 1011,4 10 0 0,0
21.09.2018 21:00:00 10,6 7,4 - - 16 9 - - W 1010,4 10 0 0,0
21.09.2018 20:00:00 10,7 7,3 - - 21 11 - - W 1008,9 10 0 0,0
21.09.2018 19:00:00 11,7 6,6 - - 24 13 46 25 W 1007,7 10 48 0,0
21.09.2018 18:00:00 12,9 6,6 - - 28 15 48 26 W 1005,8 10 54 0,0
21.09.2018 17:00:00 13,1 9,2 - - 22 12 - - W 1004,1 10 24 0,2
21.09.2018 16:00:00 11,0 9,2 - - 22 12 - - SW 1002,8 10 6 1,0
21.09.2018 15:00:00 12,3 7,3 - - 24 13 46 25 WSW 1002,3 10 24 0,0
21.09.2018 14:00:00 11,4 7,7 - - 21 11 52 28 WSW 1002,2 10 42 0,0
21.09.2018 13:00:00 12,3 6,4 - - 34 18 59 32 WSW 1001,4 10 42 0,2
21.09.2018 12:00:00 11,6 6,8 - - 28 15 61 33 W 1000,9 10 12 0,4
21.09.2018 11:00:00 11,9 6,4 - - 35 19 54 29 WSW 1000,1 10 30 0,0
21.09.2018 10:00:00 10,5 6,7 14,0 14,2 29 16 55 30 WSW 999,1 10 30 0,0
21.09.2018 09:00:00 9,6 5,5 - - 22 12 48 26 W 998,4 10 30 0,0
21.09.2018 08:00:00 9,1 5,3 - - 28 15 48 26 W 997,0 50 42 0,0
21.09.2018 07:00:00 8,0 4,7 - - 29 16 - - W 995,4 10 0 0,0
21.09.2018 06:00:00 7,8 4,2 - - 24 13 52 28 W 993,9 10 0 0,0
21.09.2018 05:00:00 8,2 4,4 - - 39 21 81 44 W 991,4 - 0 0,0
21.09.2018 04:00:00 10,0 6,4 - - 42 23 67 36 WSW 987,9 10 0 0,4
21.09.2018 03:00:00 16,0 12,6 - - 41 22 59 32 SSW 985,9 10 0 0,0
21.09.2018 02:00:00 16,4 15,2 - - 29 16 68 37 SSW 986,8 10 0 3,2
21.09.2018 01:00:00 17,2 16,3 - - 26 14 57 31 S 987,8 6 - 14,8
21.09.2018 00:00:00 17,0 15,2 - - 26 14 48 26 S 989,8 10 0 0,6
20.09.2018 23:00:00 16,3 15,3 - - 21 11 - - S 992,2 8 0 2,4
20.09.2018 22:00:00 16,7 15,6 - - 24 13 - - SSW 994,5 10 0 0,2
20.09.2018 21:00:00 12,2 12,0 - - 5 3 - - SE 996,4 7 0 0,0
20.09.2018 20:00:00 11,9 11,6 - - 5 3 - - NE 997,9 10 0 2,4
20.09.2018 19:00:00 12,0 11,8 - - 15 8 - - NNW 998,9 6 0 9,4
20.09.2018 18:00:00 11,8 11,5 - - 13 7 - - N 999,2 8 0 7,0
20.09.2018 17:00:00 11,9 11,6 - - 18 10 - - NE 1001,5 5 0 8,2
20.09.2018 16:00:00 12,2 11,4 - - 8 4 - - ESE 1003,9 3,6 0 6,6
20.09.2018 15:00:00 13,1 11,7 - - 5 3 - - SE 1005,5 7 0 1,0
20.09.2018 14:00:00 13,5 10,4 - - 9 5 - - S 1007,2 10 0 0,4
20.09.2018 13:00:00 14,9 8,7 - - 9 5 - - S 1007,9 10 0 0,0
20.09.2018 12:00:00 14,2 9,4 - - 11 6 - - S 1009,0 10 0 0,0
20.09.2018 11:00:00 13,7 9,4 - - 13 7 - - SSW 1009,8 10 12 0,0
20.09.2018 10:00:00 12,6 9,6 14,2 14,4 16 9 - - SSW 1009,9 10 18 0,0
20.09.2018 09:00:00 12,0 9,5 - - 9 5 - - SSW 1009,9 10 6 0,0
20.09.2018 08:00:00 11,4 9,2 - - 5 3 - - S 1009,7 10 0 0,0
20.09.2018 07:00:00 11,6 8,9 - - 15 8 - - SSW 1009,6 10 0 0,0
20.09.2018 06:00:00 11,8 8,7 - - 16 9 - - SSW 1009,4 10 0 0,0
20.09.2018 05:00:00 12,1 8,4 - - 22 12 - - SSW 1009,5 10 0 0,0
20.09.2018 04:00:00 12,6 8,0 - - 22 12 - - SSW 1009,5 10 0 0,0
20.09.2018 03:00:00 12,5 8,0 - - 22 12 - - SW 1009,5 10 0 0,0
20.09.2018 02:00:00 12,2 7,5 - - 21 11 - - SW 1009,3 10 0 0,0
20.09.2018 01:00:00 12,3 7,0 - - 21 11 - - SSW 1009,4 10 - 0,0
20.09.2018 00:00:00 12,8 6,6 - - 22 12 - - SW 1009,7 10 0 0,0
19.09.2018 23:00:00 12,7 6,6 - - 22 12 - - SW 1009,0 10 0 0,0
19.09.2018 22:00:00 13,2 6,7 - - 21 11 - - SW 1008,9 10 0 0,0
19.09.2018 21:00:00 14,0 6,9 - - 24 13 - - SW 1008,4 10 0 0,0
19.09.2018 20:00:00 14,8 6,8 - - 31 17 52 28 SW 1007,3 10 0 0,0
19.09.2018 19:00:00 15,5 5,6 - - 37 20 59 32 WSW 1006,5 10 24 0,0
19.09.2018 18:00:00 16,5 5,3 - - 29 16 72 39 WSW 1005,8 10 48 0,0
19.09.2018 17:00:00 18,4 5,0 - - 39 21 70 38 WSW 1004,1 10 60 0,0
19.09.2018 16:00:00 18,5 11,2 - - 42 23 81 44 WSW 1002,9 10 18 0,4
19.09.2018 15:00:00 20,8 12,2 - - 52 28 87 47 SW 1001,2 10 6 0,0
19.09.2018 14:00:00 20,6 11,5 - - 44 24 78 42 SW 1001,4 10 0 0,0
19.09.2018 13:00:00 20,2 11,8 - - 42 23 72 39 SSW 1001,6 10 0 0,0
19.09.2018 12:00:00 19,0 12,0 - - 44 24 70 38 SSW 1002,0 10 0 0,0
19.09.2018 11:00:00 18,5 12,4 - - 41 22 65 35 SSW 1003,0 10 48 0,0

tt = temperature
td = dewpoint
tt -20cm = temperature -20cm
tt -100cm = temperature -100cm
ff = wind speed
fx = gusts
dd = wind direction
ppp = reduced air pressure
vv = visibility
sd = sunshine duration
rr = precipitation

Next stations